Location: Airlie Beach - Cannonvale QLD, Australia
(20.2768°S, 148.7558°E)
Time: 03:56:25
(UTC+10:00)

Hubble Space Telescope - Pass Details

Date: 01 April 2023
Orbit: 525 x 528 km, 28.5° (Epoch: 31 May)

Event Time Altitude Azimuth Distance (km) Brightness Sun altitude
Exits shadow 04:42:07 14° 358° (N) 1,500 3.0 -21.9°
Maximum altitude 04:43:53 18° 30° (NNE) 1,313 3.0 -21.5°
Drops below altitude 10° 04:46:44 10° 74° (ENE) 1,758 4.4 -20.8°
Sets 04:49:31 0° 93° (E) 2,650 5.9 -20.1°
